| time (UTC) | temp F | wind direction | speed knots | gust knots | rain 1hr in | rain 24hr in | rain mn in | humidity % | barometer mb |
| 20260504081944 | 45 | 306 | 1.7 | 3.5 | 0.00 | 0.00 | 0.00 | 65 | 1015.9 |
| 20260504081442 | 45 | 313 | 3.5 | 6.1 | 0.00 | 0.00 | 0.00 | 65 | 1015.8 |
| 20260504080937 | 46 | 279 | 7.8 | 8.7 | 0.00 | 0.00 | 0.00 | 64 | 1015.9 |
| 20260504080434 | 46 | 279 | 7.8 | 8.7 | 0.00 | 0.00 | 0.00 | 64 | 1015.9 |
| 20260504070402 | 46 | 280 | 5.2 | 6.1 | 0.00 | 0.00 | 0.00 | 62 | 1016.1 |
| 20260504050749 | 46 | 283 | 2.6 | 3.5 | 0.00 | 0.00 | 0.00 | 54 | 1016.9 |
| 20260504050247 | 46 | 294 | 3.5 | 3.5 | 0.00 | 0.00 | 0.00 | 52 | 1016.9 |
| 20260504045744 | 46 | 266 | 2.6 | 5.2 | 0.00 | 0.00 | 0.00 | 52 | 1016.8 |
| 20260504045238 | 46 | 299 | 2.6 | 6.1 | 0.00 | 0.00 | 0.00 | 51 | 1016.7 |
| 20260504044736 | 45 | 278 | 0.9 | 3.5 | 0.00 | 0.00 | 0.00 | 51 | 1016.7 |
| 20260504044234 | 44 | 316 | 1.7 | 3.5 | 0.00 | 0.00 | 0.00 | 51 | 1016.8 |
| 20260504043731 | 44 | 297 | 1.7 | 2.6 | 0.00 | 0.00 | 0.00 | 52 | 1016.7 |
| 20260504043227 | 44 | 289 | 1.7 | 1.7 | 0.00 | 0.00 | 0.00 | 53 | 1016.8 |
| 20260504042725 | 44 | 296 | 0.9 | 0.9 | 0.00 | 0.00 | 0.00 | 52 | 1016.6 |
| 20260504042221 | 44 | 303 | 1.7 | 1.7 | 0.00 | 0.00 | 0.00 | 51 | 1016.7 |
| 20260504041718 | 44 | 297 | 1.7 | 3.5 | 0.00 | 0.00 | 0.00 | 52 | 1016.6 |
| 20260504041214 | 44 | 308 | 1.7 | 3.5 | 0.00 | 0.00 | 0.00 | 50 | 1016.6 |
| 20260504040710 | 44 | 293 | 1.7 | 2.6 | 0.00 | 0.00 | 0.00 | 50 | 1016.7 |
| 20260504040208 | 45 | 298 | 0.9 | 2.6 | 0.00 | 0.00 | 0.00 | 50 | 1016.6 |
| 20260504035703 | 45 | 300 | 2.6 | 2.6 | 0.00 | 0.00 | 0.00 | 48 | 1016.6 |
| 20260504035201 | 45 | 296 | 1.7 | 2.6 | 0.00 | 0.00 | 0.00 | 48 | 1016.6 |
| 20260504034658 | 45 | 295 | 1.7 | 2.6 | 0.00 | 0.00 | 0.00 | 48 | 1016.5 |
| 20260504034155 | 45 | 288 | 1.7 | 2.6 | 0.00 | 0.00 | 0.00 | 48 | 1016.6 |
| 20260504033653 | 45 | 310 | 1.7 | 2.6 | 0.00 | 0.00 | 0.00 | 48 | 1016.5 |
| 20260504033150 | 45 | 283 | 1.7 | 2.6 | 0.00 | 0.00 | 0.00 | 48 | 1016.4 |
| 20260504032647 | 45 | 288 | 1.7 | 1.7 | 0.00 | 0.00 | 0.00 | 49 | 1016.5 |
| 20260504032144 | 45 | 286 | 1.7 | 2.6 | 0.00 | 0.00 | 0.00 | 48 | 1016.5 |
| 20260504031641 | 45 | 288 | 0.9 | 1.7 | 0.00 | 0.00 | 0.00 | 48 | 1016.5 |
| 20260504031137 | 45 | 301 | 1.7 | 1.7 | 0.00 | 0.00 | 0.00 | 48 | 1016.4 |
| 20260504030634 | 44 | 269 | 0.0 | 0.9 | 0.00 | 0.00 | 0.00 | 49 | 1016.2 |
| 20260504030131 | 45 | 314 | 0.9 | 1.7 | 0.00 | 0.00 | 0.00 | 52 | 1016.5 |
| 20260504025628 | 45 | 303 | 0.9 | 1.7 | 0.00 | 0.00 | 0.00 | 47 | 1016.5 |
| 20260504025124 | 46 | 318 | 1.7 | 2.6 | 0.00 | 0.00 | 0.00 | 48 | 1016.5 |
| 20260504024622 | 46 | 292 | 1.7 | 1.7 | 0.00 | 0.00 | 0.00 | 46 | 1016.3 |
| 20260504024118 | 45 | 273 | 0.9 | 2.6 | 0.00 | 0.00 | 0.00 | 47 | 1016.5 |
| 20260504023615 | 45 | 294 | 0.9 | 1.7 | 0.00 | 0.00 | 0.00 | 48 | 1016.6 |
| 20260504023111 | 45 | 312 | 1.7 | 1.7 | 0.00 | 0.00 | 0.00 | 47 | 1016.6 |
| 20260504022607 | 45 | 307 | 1.7 | 2.6 | 0.00 | 0.00 | 0.00 | 46 | 1016.5 |
| 20260504022103 | 45 | 318 | 1.7 | 1.7 | 0.00 | 0.00 | 0.00 | 46 | 1016.6 |
| 20260504021601 | 45 | 323 | 0.9 | 2.6 | 0.00 | 0.00 | 0.00 | 48 | 1016.6 |
| 20260504021058 | 45 | 327 | 1.7 | 2.6 | 0.00 | 0.00 | 0.00 | 47 | 1016.7 |
| 20260504020555 | 45 | 315 | 2.6 | 2.6 | 0.00 | 0.00 | 0.00 | 47 | 1016.5 |
| 20260504020051 | 45 | 350 | 1.7 | 3.5 | 0.00 | 0.00 | 0.00 | 47 | 1016.6 |
| 20260504015548 | 45 | 349 | 1.7 | 3.5 | 0.00 | 0.00 | 0.00 | 46 | 1016.5 |
| 20260504015043 | 45 | 351 | 1.7 | 2.6 | 0.00 | 0.00 | 0.00 | 46 | 1016.4 |
| 20260504014540 | 45 | 336 | 0.9 | 1.7 | 0.00 | 0.00 | 0.00 | 45 | 1016.5 |
| 20260504014037 | 46 | 333 | 1.7 | 2.6 | 0.00 | 0.00 | 0.00 | 46 | 1016.3 |
| 20260504013535 | 46 | 313 | 0.9 | 2.6 | 0.00 | 0.00 | 0.00 | 46 | 1016.4 |
| 20260504013032 | 45 | 335 | 2.6 | 2.6 | 0.00 | 0.00 | 0.00 | 45 | 1016.4 |
| 20260504012529 | 46 | 321 | 1.7 | 1.7 | 0.00 | 0.00 | 0.00 | 46 | 1016.4 |
| 20260504012027 | 46 | 336 | 1.7 | 2.6 | 0.00 | 0.00 | 0.00 | 46 | 1016.3 |
| 20260504011523 | 46 | 354 | 1.7 | 2.6 | 0.00 | 0.00 | 0.00 | 46 | 1016.3 |
| 20260504011019 | 46 | 343 | 1.7 | 2.6 | 0.00 | 0.00 | 0.00 | 45 | 1016.1 |
| 20260504010515 | 46 | 334 | 1.7 | 1.7 | 0.00 | 0.00 | 0.00 | 45 | 1015.9 |
| 20260504010011 | 46 | 322 | 0.9 | 0.9 | 0.00 | 0.00 | 0.00 | 45 | 1015.8 |
| 20260504005508 | 46 | 324 | 0.9 | 1.7 | 0.00 | 0.00 | 0.00 | 45 | 1016.1 |
| 20260504005006 | 46 | 325 | 1.7 | 1.7 | 0.00 | 0.00 | 0.00 | 45 | 1016.1 |
| 20260504004503 | 46 | 333 | 1.7 | 2.6 | 0.00 | 0.00 | 0.00 | 45 | 1015.9 |
| 20260504004000 | 46 | 318 | 0.9 | 1.7 | 0.00 | 0.00 | 0.00 | 45 | 1015.8 |
| 20260504003456 | 47 | 335 | 1.7 | 2.6 | 0.00 | 0.00 | 0.00 | 44 | 1016.1 |
| 20260504002953 | 47 | 327 | 1.7 | 1.7 | 0.00 | 0.00 | 0.00 | 46 | 1015.7 |
| 20260504002450 | 47 | 331 | 0.9 | 1.7 | 0.00 | 0.00 | 0.00 | 45 | 1015.6 |
| 20260504001948 | 47 | 318 | 1.7 | 2.6 | 0.00 | 0.00 | 0.00 | 45 | 1015.7 |
| 20260504001445 | 47 | 352 | 1.7 | 2.6 | 0.00 | 0.00 | 0.00 | 45 | 1015.8 |
| 20260504000942 | 48 | 345 | 1.7 | 2.6 | 0.00 | 0.00 | 0.00 | 44 | 1015.9 |
| 20260504000439 | 48 | 335 | 1.7 | 2.6 | 0.00 | 0.00 | 0.00 | 44 | 1015.8 |
| 20260503235936 | 49 | 337 | 1.7 | 2.6 | 0.00 | 0.00 | 0.00 | 42 | 1015.8 |
| 20260503235433 | 50 | 323 | 2.6 | 2.6 | 0.00 | 0.00 | 0.00 | 41 | 1015.8 |
| 20260503234931 | 50 | 303 | 0.9 | 5.2 | 0.00 | 0.00 | 0.00 | 41 | 1015.8 |
| 20260503234428 | 50 | 0 | 3.5 | 5.2 | 0.00 | 0.00 | 0.00 | 40 | 1015.8 |
| 20260503233926 | 50 | 322 | 2.6 | 6.1 | 0.00 | 0.00 | 0.00 | 41 | 1016.1 |
| 20260503233422 | 51 | 337 | 1.7 | 3.5 | 0.00 | 0.00 | 0.00 | 40 | 1016.1 |
| 20260503232919 | 51 | 308 | 2.6 | 6.1 | 0.00 | 0.00 | 0.00 | 39 | 1015.9 |
| 20260503232416 | 51 | 326 | 2.6 | 3.5 | 0.00 | 0.00 | 0.00 | 39 | 1015.8 |
| 20260503231914 | 51 | 338 | 3.5 | 7.8 | 0.00 | 0.00 | 0.00 | 38 | 1016.1 |
| 20260503231411 | 51 | 322 | 5.2 | 8.7 | 0.00 | 0.00 | 0.00 | 38 | 1015.9 |
| 20260503230907 | 52 | 315 | 2.6 | 5.2 | 0.00 | 0.00 | 0.00 | 38 | 1016.1 |
| 20260503230404 | 52 | 293 | 2.6 | 7.8 | 0.00 | 0.00 | 0.00 | 39 | 1016.2 |
| 20260503225901 | 51 | 329 | 6.1 | 7.0 | 0.00 | 0.00 | 0.00 | 38 | 1016.4 |
| 20260503225357 | 52 | 286 | 7.0 | 13.0 | 0.00 | 0.00 | 0.00 | 37 | 1016.1 |
| 20260503224854 | 52 | 358 | 4.3 | 11.3 | 0.00 | 0.00 | 0.00 | 37 | 1016.2 |
| 20260503224351 | 52 | 287 | 4.3 | 6.1 | 0.00 | 0.00 | 0.00 | 36 | 1016.2 |
| 20260503223849 | 52 | 320 | 1.7 | 7.8 | 0.00 | 0.00 | 0.00 | 38 | 1016.4 |
| 20260503223346 | 52 | 274 | 5.2 | 11.3 | 0.00 | 0.00 | 0.00 | 35 | 1016.2 |
| 20260503222841 | 52 | 300 | 4.3 | 7.0 | 0.00 | 0.00 | 0.00 | 36 | 1016.2 |
| 20260503222340 | 53 | 297 | 7.0 | 8.7 | 0.00 | 0.00 | 0.00 | 34 | 1016.1 |
| 20260503221838 | 52 | 323 | 3.5 | 6.1 | 0.00 | 0.00 | 0.00 | 36 | 1016.1 |
| 20260503221337 | 52 | 319 | 6.1 | 9.6 | 0.00 | 0.00 | 0.00 | 36 | 1016.1 |
| 20260503220832 | 53 | 309 | 6.1 | 11.3 | 0.00 | 0.00 | 0.00 | 35 | 1016.2 |
| 20260503220329 | 52 | 323 | 3.5 | 7.8 | 0.00 | 0.00 | 0.00 | 38 | 1016.2 |
| 20260503215826 | 53 | 202 | 4.3 | 7.0 | 0.00 | 0.00 | 0.00 | 41 | 1016.1 |
| 20260503215323 | 52 | 301 | 7.8 | 9.6 | 0.00 | 0.00 | 0.00 | 38 | 1016.3 |
| 20260503214821 | 53 | 281 | 4.3 | 7.0 | 0.00 | 0.00 | 0.00 | 41 | 1016.2 |
| 20260503214318 | 52 | 261 | 7.0 | 9.6 | 0.00 | 0.00 | 0.00 | 42 | 1016.3 |
| 20260503213815 | 53 | 333 | 5.2 | 6.1 | 0.00 | 0.00 | 0.00 | 40 | 1016.1 |
| 20260503213313 | 53 | 324 | 3.5 | 7.0 | 0.00 | 0.00 | 0.00 | 40 | 1016.4 |
| 20260503212809 | 53 | 292 | 3.5 | 5.2 | 0.00 | 0.00 | 0.00 | 39 | 1016.3 |
| 20260503212307 | 52 | 274 | 5.2 | 7.8 | 0.00 | 0.00 | 0.00 | 38 | 1016.3 |
| 20260503211805 | 53 | 317 | 5.2 | 8.7 | 0.00 | 0.00 | 0.00 | 38 | 1016.3 |
| 20260503211301 | 53 | 305 | 6.1 | 7.8 | 0.00 | 0.00 | 0.00 | 41 | 1016.4 |
| 20260503210801 | 53 | 332 | 3.5 | 7.8 | 0.00 | 0.00 | 0.00 | 34 | 1016.4 |
| 20260503210259 | 53 | 288 | 7.0 | 11.3 | 0.00 | 0.00 | 0.00 | 35 | 1016.5 |
| 20260503205754 | 53 | 296 | 3.5 | 7.8 | 0.00 | 0.00 | 0.00 | 37 | 1016.6 |
| 20260503205251 | 52 | 320 | 7.8 | 12.2 | 0.00 | 0.00 | 0.00 | 33 | 1016.5 |
| 20260503204747 | 53 | 277 | 1.7 | 6.1 | 0.00 | 0.00 | 0.00 | 35 | 1016.5 |
| 20260503204245 | 52 | 308 | 2.6 | 8.7 | 0.00 | 0.00 | 0.00 | 36 | 1016.5 |
| 20260503203742 | 52 | 298 | 7.0 | 13.9 | 0.00 | 0.00 | 0.00 | 39 | 1016.8 |
| 20260503203239 | 52 | 271 | 1.7 | 8.7 | 0.00 | 0.00 | 0.00 | 39 | 1016.6 |
| 20260503202736 | 52 | 297 | 6.1 | 9.6 | 0.00 | 0.00 | 0.00 | 41 | 1016.6 |
| 20260503202234 | 52 | 331 | 4.3 | 7.0 | 0.00 | 0.00 | 0.00 | 41 | 1016.7 |
| 20260503201732 | 52 | 301 | 5.2 | 7.0 | 0.00 | 0.00 | 0.00 | 39 | 1016.8 |
| 20260503201229 | 52 | 320 | 3.5 | 11.3 | 0.00 | 0.00 | 0.00 | 38 | 1016.9 |
| 20260503200725 | 51 | 63 | 9.6 | 12.2 | 0.00 | 0.00 | 0.00 | 39 | 1016.8 |
| 20260503200222 | 51 | 318 | 6.1 | 9.6 | 0.00 | 0.00 | 0.00 | 42 | 1016.9 |
| 20260503195718 | 51 | 275 | 7.0 | 11.3 | 0.00 | 0.00 | 0.00 | 40 | 1017.2 |
| 20260503195216 | 52 | 280 | 6.1 | 8.7 | 0.00 | 0.00 | 0.00 | 38 | 1017.2 |
| 20260503194713 | 51 | 261 | 3.5 | 8.7 | 0.00 | 0.00 | 0.00 | 39 | 1017.0 |
| 20260503194209 | 52 | 318 | 5.2 | 7.0 | 0.00 | 0.00 | 0.00 | 47 | 1017.4 |
| 20260503193705 | 52 | 306 | 6.1 | 9.6 | 0.00 | 0.00 | 0.00 | 36 | 1017.4 |
| 20260503193201 | 51 | 359 | 5.2 | 8.7 | 0.00 | 0.00 | 0.00 | 44 | 1017.4 |
| 20260503192657 | 51 | 273 | 2.6 | 6.1 | 0.00 | 0.00 | 0.00 | 40 | 1017.5 |
| 20260503192152 | 51 | 276 | 5.2 | 9.6 | 0.00 | 0.00 | 0.00 | 49 | 1017.7 |
| 20260503191649 | 51 | 299 | 9.6 | 13.0 | 0.00 | 0.00 | 0.00 | 40 | 1017.5 |
| 20260503191146 | 51 | 32 | 6.1 | 7.8 | 0.00 | 0.00 | 0.00 | 43 | 1017.6 |
| 20260503190643 | 50 | 61 | 3.5 | 7.8 | 0.00 | 0.00 | 0.00 | 38 | 1017.9 |
| 20260503190140 | 51 | 15 | 3.5 | 13.0 | 0.00 | 0.00 | 0.00 | 43 | 1017.9 |
| 20260503185637 | 51 | 329 | 6.1 | 12.2 | 0.00 | 0.00 | 0.00 | 43 | 1017.7 |
| 20260503185132 | 50 | 49 | 3.5 | 5.2 | 0.00 | 0.00 | 0.00 | 46 | 1017.8 |
| 20260503184627 | 51 | 328 | 3.5 | 8.7 | 0.00 | 0.00 | 0.00 | 39 | 1017.9 |
| 20260503184124 | 51 | 315 | 5.2 | 7.8 | 0.00 | 0.00 | 0.00 | 46 | 1018.0 |
| 20260503183620 | 50 | 29 | 4.3 | 8.7 | 0.00 | 0.00 | 0.00 | 44 | 1017.9 |
| 20260503183118 | 50 | 25 | 4.3 | 7.0 | 0.00 | 0.00 | 0.00 | 50 | 1018.0 |
| 20260503182616 | 50 | 295 | 5.2 | 7.8 | 0.00 | 0.00 | 0.00 | 40 | 1017.9 |
| 20260503182114 | 52 | 309 | 6.1 | 7.0 | 0.00 | 0.00 | 0.00 | 48 | 1017.9 |
| 20260503181610 | 50 | 299 | 3.5 | 3.5 | 0.00 | 0.00 | 0.00 | 53 | 1018.0 |
| 20260503181107 | 49 | 59 | 4.3 | 6.1 | 0.00 | 0.00 | 0.00 | 50 | 1017.9 |
| 20260503180604 | 49 | 31 | 5.2 | 7.0 | 0.00 | 0.00 | 0.00 | 42 | 1018.3 |
| 20260503175559 | 48 | 157 | 0.0 | 1.7 | 0.00 | 0.00 | 0.00 | 42 | 1018.3 |
| 20260503175056 | 49 | 31 | 4.3 | 7.0 | 0.00 | 0.00 | 0.00 | 38 | 1018.1 |
| 20260503174553 | 48 | 117 | 4.3 | 7.0 | 0.00 | 0.00 | 0.00 | 38 | 1018.5 |
| 20260503174049 | 48 | 261 | 5.2 | 7.8 | 0.00 | 0.00 | 0.00 | 43 | 1018.6 |
| 20260503173544 | 48 | 342 | 5.2 | 8.7 | 0.00 | 0.00 | 0.00 | 47 | 1018.5 |
| 20260503173041 | 48 | 72 | 4.3 | 5.2 | 0.00 | 0.00 | 0.00 | 43 | 1018.6 |
| 20260503172539 | 47 | 333 | 4.3 | 7.0 | 0.00 | 0.00 | 0.00 | 42 | 1018.7 |
| 20260503172035 | 47 | 15 | 6.1 | 11.3 | 0.00 | 0.00 | 0.00 | 46 | 1018.6 |
| 20260503171532 | 47 | 283 | 3.5 | 7.0 | 0.00 | 0.00 | 0.00 | 45 | 1018.7 |
| 20260503171030 | 47 | 331 | 4.3 | 8.7 | 0.00 | 0.00 | 0.00 | 40 | 1018.8 |
| 20260503170526 | 46 | 297 | 3.5 | 7.8 | 0.00 | 0.00 | 0.00 | 40 | 1018.7 |
| 20260503150918 | 42 | 311 | 6.1 | 7.8 | 0.00 | 0.00 | 0.00 | 51 | 1019.5 |
| 20260503150415 | 42 | 330 | 7.0 | 8.7 | 0.00 | 0.00 | 0.00 | 50 | 1019.2 |
| 20260503131308 | 36 | 293 | 6.1 | 8.7 | 0.00 | 0.00 | 0.00 | 67 | 1018.9 |
| 20260503130805 | 37 | 3 | 7.8 | 11.3 | 0.00 | 0.00 | 0.00 | 68 | 1019.0 |
| 20260503130302 | 36 | 334 | 4.3 | 8.7 | 0.00 | 0.00 | 0.00 | 74 | 1018.8 |
| 20260503110656 | 29 | 305 | 1.7 | 2.6 | 0.00 | 0.00 | 0.00 | 91 | 1017.3 |
| 20260503110154 | 29 | 308 | 2.6 | 3.5 | 0.00 | 0.00 | 0.00 | 91 | 1017.0 |
| 20260503100120 | 29 | 344 | 1.7 | 3.5 | 0.00 | 0.00 | 0.00 | 90 | 1016.6 |